Starlink 11603

operational
NORAD ID: 63671 Int'l Des: 2025-085 Owner: SPXS Country: US Constellation: starlink
LEOCIRCULAR

About Starlink 11603

Description loading...

Live Position

Loading 3D Globe...

Upcoming Passes

Altitude History

Altitude vs Time

uPlot chart will show altitude changes over time

Two-Line Element Set

1 63671U 25085H 25304.57047265 .00383341 00000-0 28580-2 0 9990
2 63671 42.9990 336.8021 0001483 255.5673 104.5030 15.70817524 29936
Epoch: Oct 31, 2025 • Age: 22 hours

Current Status

Altitude 356.2 km
Velocity 7.70 km/s
Sub-Earth Point -11.74°S, 55.29°W
Launch Date Apr 28, 2025
Age 0.5 years
Type internet

Technical Details

Classification Payload
Mass 960.00 kg
Dry Mass 910.00 kg
Total Mass 960.00 kg
Length 0.30 m
Diameter 4.10 m
Span 29.00 m
Shape Box + pan
Manufacturer SPXS
Bus Type Starlink V2MD
Phase Status In Orbit
Owner/State SPXS/US

Large Constellations

Loading constellations...